Time,TemperatureF,DewpointF,PressureIn,WindDirection,WindDirectionDegrees,WindSpeedMPH,WindSpeedGustMPH,Humidity,HourlyPrecipIn,Conditions,Clouds,dailyrainin,SoftwareType,DateUTC
2013-05-17 00:07:00,39.3,38.0,29.87,SSE,155,0.0,0.0,96,0.00,,,0.00,weatherlink.com 1.10,2013-05-17 07:07:00,
2013-05-17 00:22:00,39.3,38.0,29.87,SSE,150,0.0,0.0,96,0.00,,,0.00,weatherlink.com 1.10,2013-05-17 07:22:00,
2013-05-17 00:37:00,38.7,38.0,29.87,SSE,152,0.0,0.0,96,0.00,,,0.00,weatherlink.com 1.10,2013-05-17 07:37:00,
2013-05-17 00:52:00,37.8,37.0,29.87,SSE,153,0.0,0.0,96,0.00,,,0.00,weatherlink.com 1.10,2013-05-17 07:52:00,
2013-05-17 01:07:00,37.7,37.0,29.86,SSE,152,0.0,0.0,97,0.00,,,0.00,weatherlink.com 1.10,2013-05-17 08:07:00,
2013-05-17 01:22:00,37.3,36.0,29.86,SSE,152,0.0,0.0,96,0.00,,,0.00,weatherlink.com 1.10,2013-05-17 08:22:00,
2013-05-17 01:37:00,37.0,36.0,29.86,SSE,152,0.0,0.0,97,0.00,,,0.00,weatherlink.com 1.10,2013-05-17 08:37:00,
2013-05-17 01:52:00,37.2,37.0,29.86,SSE,152,0.0,0.0,97,0.00,,,0.00,weatherlink.com 1.10,2013-05-17 08:52:00,
2013-05-17 02:07:00,37.3,37.0,29.86,SSW,211,0.0,1.0,97,0.00,,,0.00,weatherlink.com 1.10,2013-05-17 09:07:00,
2013-05-17 02:22:00,37.6,37.0,29.86,SSW,211,0.0,0.0,97,0.00,,,0.00,weatherlink.com 1.10,2013-05-17 09:22:00,
2013-05-17 02:37:00,38.0,37.0,29.86,SSW,211,0.0,0.0,97,0.00,,,0.00,weatherlink.com 1.10,2013-05-17 09:37:00,
2013-05-17 02:52:00,37.4,37.0,29.86,SSW,211,0.0,1.0,97,0.00,,,0.00,weatherlink.com 1.10,2013-05-17 09:52:00,
2013-05-17 03:07:00,37.4,37.0,29.86,WSW,242,0.0,1.0,97,0.00,,,0.00,weatherlink.com 1.10,2013-05-17 10:07:00,
2013-05-17 03:22:00,38.6,38.0,29.86,WSW,241,0.0,1.0,98,0.00,,,0.00,weatherlink.com 1.10,2013-05-17 10:22:00,
2013-05-17 03:37:00,40.0,40.0,29.86,North,355,0.0,2.0,98,0.00,,,0.00,weatherlink.com 1.10,2013-05-17 10:37:00,
2013-05-17 03:52:00,39.7,39.0,29.86,WSW,241,0.0,1.0,98,0.00,,,0.00,weatherlink.com 1.10,2013-05-17 10:52:00,
2013-05-17 04:07:00,39.1,38.0,29.86,NNW,342,0.0,1.0,97,0.00,,,0.00,weatherlink.com 1.10,2013-05-17 11:07:00,
2013-05-17 04:22:00,38.4,38.0,29.86,NE,34,0.0,0.0,97,0.00,,,0.00,weatherlink.com 1.10,2013-05-17 11:22:00,
2013-05-17 04:37:00,37.6,37.0,29.86,NE,34,0.0,0.0,97,0.00,,,0.00,weatherlink.com 1.10,2013-05-17 11:37:00,
2013-05-17 04:52:00,37.3,37.0,29.86,NE,34,0.0,0.0,97,0.00,,,0.00,weatherlink.com 1.10,2013-05-17 11:52:00,
2013-05-17 05:07:00,36.7,36.0,29.87,NE,34,0.0,0.0,97,0.00,,,0.00,weatherlink.com 1.10,2013-05-17 12:07:00,
2013-05-17 05:22:00,36.8,36.0,29.87,NNE,32,0.0,1.0,98,0.00,,,0.00,weatherlink.com 1.10,2013-05-17 12:22:00,
2013-05-17 05:37:00,36.5,36.0,29.87,NNE,33,0.0,0.0,98,0.00,,,0.00,weatherlink.com 1.10,2013-05-17 12:37:00,
2013-05-17 05:52:00,37.2,37.0,29.87,WSW,252,0.0,1.0,98,0.00,,,0.00,weatherlink.com 1.10,2013-05-17 12:52:00,
2013-05-17 06:07:00,38.3,38.0,29.88,ENE,70,0.0,1.0,98,0.00,,,0.00,weatherlink.com 1.10,2013-05-17 13:07:00,
2013-05-17 06:22:00,42.4,42.0,29.88,ENE,66,2.0,3.0,99,0.00,,,0.00,weatherlink.com 1.10,2013-05-17 13:22:00,
2013-05-17 06:37:00,43.9,43.0,29.89,East,80,1.0,2.0,98,0.00,,,0.00,weatherlink.com 1.10,2013-05-17 13:37:00,
2013-05-17 06:52:00,44.0,44.0,29.89,NW,304,0.0,1.0,98,0.00,,,0.00,weatherlink.com 1.10,2013-05-17 13:52:00,
2013-05-17 07:08:00,45.1,44.0,29.89,WNW,300,4.0,4.0,96,0.00,,,0.00,weatherlink.com 1.10,2013-05-17 14:08:00,
2013-05-17 07:23:00,46.2,45.0,29.90,NW,306,3.0,5.0,94,0.00,,,0.00,weatherlink.com 1.10,2013-05-17 14:23:00,
2013-05-17 07:38:00,47.4,45.0,29.90,NNW,338,3.0,6.0,91,0.00,,,0.00,weatherlink.com 1.10,2013-05-17 14:38:00,
2013-05-17 07:53:00,49.3,46.0,29.89,NNW,330,3.0,5.0,88,0.00,,,0.00,weatherlink.com 1.10,2013-05-17 14:53:00,
2013-05-17 08:08:00,50.4,45.0,29.89,WNW,298,5.0,10.0,82,0.00,,,0.00,weatherlink.com 1.10,2013-05-17 15:08:00,
2013-05-17 08:23:00,50.4,45.0,29.89,NW,308,7.0,13.0,81,0.00,,,0.00,weatherlink.com 1.10,2013-05-17 15:23:00,
2013-05-17 08:38:00,51.6,46.0,29.89,WNW,295,11.0,11.0,81,0.00,,,0.00,weatherlink.com 1.10,2013-05-17 15:38:00,
2013-05-17 08:53:00,51.6,45.0,29.89,NW,312,9.0,13.0,79,0.00,,,0.00,weatherlink.com 1.10,2013-05-17 15:53:00,
2013-05-17 09:08:00,51.7,46.0,29.89,West,278,6.0,12.0,80,0.00,,,0.00,weatherlink.com 1.10,2013-05-17 16:08:00,
2013-05-17 09:23:00,52.1,45.0,29.89,WNW,290,5.0,11.0,78,0.00,,,0.00,weatherlink.com 1.10,2013-05-17 16:23:00,
2013-05-17 09:38:00,52.9,46.0,29.89,WNW,295,8.0,12.0,78,0.00,,,0.00,weatherlink.com 1.10,2013-05-17 16:38:00,
2013-05-17 09:53:00,53.4,46.0,29.89,WNW,283,4.0,12.0,77,0.00,,,0.00,weatherlink.com 1.10,2013-05-17 16:53:00,
2013-05-17 10:23:00,54.6,46.0,29.89,WNW,294,8.0,11.0,74,0.00,,,0.00,weatherlink.com 1.10,2013-05-17 17:23:00,
2013-05-17 10:38:00,55.6,48.0,29.89,WNW,301,7.0,11.0,75,0.00,,,0.00,weatherlink.com 1.10,2013-05-17 17:38:00,
2013-05-17 10:53:00,55.8,46.0,29.89,NW,308,6.0,12.0,70,0.00,,,0.00,weatherlink.com 1.10,2013-05-17 17:53:00,
2013-05-17 11:08:00,56.3,46.0,29.89,NW,309,6.0,12.0,69,0.00,,,0.00,weatherlink.com 1.10,2013-05-17 18:08:00,
2013-05-17 11:23:00,56.7,47.0,29.89,WNW,296,8.0,12.0,69,0.00,,,0.00,weatherlink.com 1.10,2013-05-17 18:23:00,
2013-05-17 11:38:00,57.5,47.0,29.89,WNW,297,8.0,11.0,67,0.00,,,0.00,weatherlink.com 1.10,2013-05-17 18:38:00,
2013-05-17 11:53:00,57.0,48.0,29.88,WSW,256,10.0,11.0,72,0.00,,,0.00,weatherlink.com 1.10,2013-05-17 18:53:00,
2013-05-17 12:08:00,58.5,47.0,29.88,WNW,285,4.0,11.0,66,0.00,,,0.00,weatherlink.com 1.10,2013-05-17 19:08:00,
2013-05-17 12:23:00,58.3,46.0,29.88,WSW,251,8.0,13.0,63,0.00,,,0.00,weatherlink.com 1.10,2013-05-17 19:23:00,
2013-05-17 12:38:00,58.6,46.0,29.88,West,269,4.0,12.0,63,0.00,,,0.00,weatherlink.com 1.10,2013-05-17 19:38:00,
2013-05-17 12:53:00,59.1,45.0,29.87,West,259,6.0,10.0,61,0.00,,,0.00,weatherlink.com 1.10,2013-05-17 19:53:00,
2013-05-17 13:09:00,59.3,46.0,29.87,WSW,253,8.0,11.0,61,0.00,,,0.00,weatherlink.com 1.10,2013-05-17 20:09:00,
2013-05-17 13:24:00,60.1,45.0,29.87,WSW,250,9.0,12.0,58,0.00,,,0.00,weatherlink.com 1.10,2013-05-17 20:24:00,
2013-05-17 13:39:00,60.1,45.0,29.87,West,266,7.0,12.0,57,0.00,,,0.00,weatherlink.com 1.10,2013-05-17 20:39:00,
2013-05-17 13:54:00,60.6,46.0,29.87,WSW,245,10.0,13.0,60,0.00,,,0.00,weatherlink.com 1.10,2013-05-17 20:54:00,
2013-05-17 14:09:00,61.2,45.0,29.87,West,269,6.0,13.0,55,0.00,,,0.00,weatherlink.com 1.10,2013-05-17 21:09:00,
2013-05-17 14:24:00,61.0,44.0,29.87,WSW,254,7.0,11.0,53,0.00,,,0.00,weatherlink.com 1.10,2013-05-17 21:24:00,
2013-05-17 14:39:00,61.2,45.0,29.86,WSW,242,12.0,13.0,56,0.00,,,0.00,weatherlink.com 1.10,2013-05-17 21:39:00,
2013-05-17 14:54:00,61.3,43.0,29.86,West,260,8.0,11.0,52,0.00,,,0.00,weatherlink.com 1.10,2013-05-17 21:54:00,
2013-05-17 15:09:00,61.4,45.0,29.86,WSW,242,6.0,14.0,55,0.00,,,0.00,weatherlink.com 1.10,2013-05-17 22:09:00,
2013-05-17 15:24:00,61.6,43.0,29.86,WSW,242,4.0,15.0,51,0.00,,,0.00,weatherlink.com 1.10,2013-05-17 22:24:00,
2013-05-17 15:39:00,62.3,45.0,29.86,WSW,257,8.0,13.0,54,0.00,,,0.00,weatherlink.com 1.10,2013-05-17 22:39:00,
2013-05-17 15:54:00,60.4,45.0,29.86,WSW,252,6.0,11.0,57,0.00,,,0.00,weatherlink.com 1.10,2013-05-17 22:54:00,
2013-05-17 16:09:00,60.6,45.0,29.85,WNW,297,6.0,9.0,57,0.00,,,0.00,weatherlink.com 1.10,2013-05-17 23:09:00,
2013-05-17 16:24:00,62.8,45.0,29.85,West,268,9.0,12.0,53,0.00,,,0.00,weatherlink.com 1.10,2013-05-17 23:24:00,
2013-05-17 16:39:00,62.0,44.0,29.85,WNW,285,7.0,13.0,52,0.00,,,0.00,weatherlink.com 1.10,2013-05-17 23:39:00,
2013-05-17 16:54:00,61.1,44.0,29.86,WNW,291,9.0,12.0,53,0.00,,,0.00,weatherlink.com 1.10,2013-05-17 23:54:00,
2013-05-17 17:09:00,61.5,43.0,29.86,West,273,5.0,14.0,51,0.00,,,0.00,weatherlink.com 1.10,2013-05-18 00:09:00,
2013-05-17 17:24:00,61.5,44.0,29.87,West,266,9.0,11.0,53,0.00,,,0.00,weatherlink.com 1.10,2013-05-18 00:24:00,
2013-05-17 17:39:00,61.9,42.0,29.86,NW,306,6.0,10.0,49,0.00,,,0.00,weatherlink.com 1.10,2013-05-18 00:39:00,
2013-05-17 17:54:00,61.8,44.0,29.86,West,262,6.0,12.0,52,0.00,,,0.00,weatherlink.com 1.10,2013-05-18 00:54:00,
2013-05-17 18:09:00,61.2,44.0,29.87,West,270,6.0,14.0,54,0.00,,,0.00,weatherlink.com 1.10,2013-05-18 01:09:00,
2013-05-17 18:24:00,61.0,44.0,29.87,West,271,10.0,12.0,54,0.00,,,0.00,weatherlink.com 1.10,2013-05-18 01:24:00,
2013-05-17 18:39:00,59.6,46.0,29.88,West,269,11.0,13.0,61,0.00,,,0.00,weatherlink.com 1.10,2013-05-18 01:39:00,
2013-05-17 18:54:00,59.5,45.0,29.88,WNW,299,9.0,16.0,60,0.00,,,0.00,weatherlink.com 1.10,2013-05-18 01:54:00,
2013-05-17 19:09:00,58.4,45.0,29.89,WNW,297,14.0,17.0,61,0.00,,,0.00,weatherlink.com 1.10,2013-05-18 02:09:00,
2013-05-17 19:24:00,57.9,45.0,29.89,WNW,283,12.0,19.0,62,0.00,,,0.00,weatherlink.com 1.10,2013-05-18 02:24:00,
2013-05-17 19:39:00,56.5,44.0,29.90,WNW,291,13.0,16.0,64,0.00,,,0.00,weatherlink.com 1.10,2013-05-18 02:39:00,
2013-05-17 19:54:00,55.2,44.0,29.91,West,281,9.0,20.0,65,0.00,,,0.00,weatherlink.com 1.10,2013-05-18 02:54:00,
2013-05-17 20:09:00,53.7,43.0,29.91,WNW,295,6.0,13.0,67,0.00,,,0.00,weatherlink.com 1.10,2013-05-18 03:09:00,
2013-05-17 20:24:00,53.0,43.0,29.92,WNW,297,6.0,11.0,69,0.00,,,0.00,weatherlink.com 1.10,2013-05-18 03:24:00,
2013-05-17 20:39:00,52.2,43.0,29.93,WNW,285,6.0,9.0,70,0.00,,,0.00,weatherlink.com 1.10,2013-05-18 03:39:00,
2013-05-17 20:54:00,52.2,42.0,29.93,WNW,297,7.0,12.0,69,0.00,,,0.00,weatherlink.com 1.10,2013-05-18 03:54:00,
2013-05-17 21:09:00,51.8,42.0,29.94,WNW,291,4.0,13.0,69,0.00,,,0.00,weatherlink.com 1.10,2013-05-18 04:09:00,
2013-05-17 21:24:00,50.6,41.0,29.95,WNW,297,9.0,10.0,70,0.00,,,0.00,weatherlink.com 1.10,2013-05-18 04:24:00,
2013-05-17 21:39:00,50.6,41.0,29.95,WNW,299,6.0,15.0,70,0.00,,,0.00,weatherlink.com 1.10,2013-05-18 04:39:00,
2013-05-17 21:54:00,50.0,41.0,29.95,WNW,302,8.0,12.0,71,0.00,,,0.00,weatherlink.com 1.10,2013-05-18 04:54:00,
2013-05-17 22:09:00,49.9,41.0,29.95,NW,308,4.0,13.0,71,0.00,,,0.00,weatherlink.com 1.10,2013-05-18 05:09:00,
2013-05-17 22:24:00,49.5,41.0,29.96,NW,314,4.0,8.0,72,0.00,,,0.00,weatherlink.com 1.10,2013-05-18 05:24:00,
2013-05-17 22:39:00,49.1,40.0,29.96,WNW,300,4.0,7.0,72,0.00,,,0.00,weatherlink.com 1.10,2013-05-18 05:39:00,
2013-05-17 22:54:00,48.6,41.0,29.96,WNW,302,7.0,8.0,74,0.00,,,0.00,weatherlink.com 1.10,2013-05-18 05:54:00,
2013-05-17 23:09:00,48.5,40.0,29.96,WNW,295,5.0,9.0,73,0.00,,,0.00,weatherlink.com 1.10,2013-05-18 06:09:00,
2013-05-17 23:24:00,48.5,40.0,29.97,NW,307,3.0,7.0,73,0.00,,,0.00,weatherlink.com 1.10,2013-05-18 06:24:00,
2013-05-17 23:39:00,48.1,40.0,29.97,NW,304,3.0,5.0,73,0.00,,,0.00,weatherlink.com 1.10,2013-05-18 06:39:00,
2013-05-17 23:54:00,48.2,40.0,29.97,WNW,297,4.0,7.0,73,0.00,,,0.00,weatherlink.com 1.10,2013-05-18 06:54:00,